Flag for U.S.A. Weather past 2 weeks in Downey, California, U.S.A.

Now
77 °F

Sunny.


Feels Like: 79 °F
Forecast: 64 / 80 °F
Wind: 8 mph from Southwest

Location: Long Beach Airport

Current Time: Sep 20, 2014 at 5:30:18 PM

Latest Report: Sep 20, 2014 at 4:53 PM


Visibility: 10 mi

Pressure: 29.87 "Hg

Humidity: 58%

Dew point: 61 °F

Location of DowneyLocation

Historic Weather in Downey — Graph

°F

Downey temperature yesterday

Maximum temperature yesterday: 78 °F (at 2:53 PM)
Minimum temperature yesterday: 68 °F (at 2:53 AM)
Average temperature yesterday: 73 °F

Past Weeks' High & Low Weather Summary

 TemperatureHumidityPressure
High99 °F (Sep 14, 1:53 PM)90% (Sep 10, 1:53 AM)29.95 "Hg (Sep 10, 1:53 AM)
Low66 °F (Sep 10, 6:53 AM)25% (Sep 17, 2:53 PM)29.67 "Hg (Sep 14, 5:53 PM)
Average78 °F62%29.80 "Hg
* Reported Sep 5 3:53 PM — Sep 20 3:53 PM, Downey, Weather by CustomWeather, © 2014

Note: Actual official high and low records may vary slightly from our data, if they occured in-between our weather recording intervals... More about our weather records

Advertising

Downey weather history for previous 24 hours

 ConditionsComfort  
Time TempWeatherWind HumidityBarometerVisibility
3:53 PM
Sep 20
78 °FSunny.8 mph58%29.88 "Hg10 mi
2:53 PM77 °FScattered clouds.3 mph60%29.89 "Hg10 mi
1:53 PM74 °FMore clouds than sun.9 mph67%29.91 "Hg10 mi
12:53 PM75 °FMore clouds than sun.6 mph66%29.93 "Hg10 mi
11:53 AM72 °FOvercast.5 mph76%29.95 "Hg10 mi
10:53 AM72 °FOvercast.6 mph76%29.95 "Hg10 mi
5:53 AM69 °FOvercast.3 mph81%29.90 "Hg10 mi
4:53 AM68 °FOvercast.No wind84%29.89 "Hg10 mi
3:53 AM68 °FOvercast.No wind84%29.88 "Hg10 mi
2:53 AM67 °FClear.No wind87%29.88 "Hg10 mi
1:53 AM68 °FClear.No wind84%29.89 "Hg10 mi
12:53 AM68 °FClear.No wind84%29.89 "Hg10 mi
11:53 PM
Sep 19
69 °FClear.No wind81%29.89 "Hg10 mi
10:53 PM69 °FClear.5 mph81%29.88 "Hg10 mi
9:53 PM70 °FClear.7 mph76%29.87 "Hg10 mi
8:53 PM70 °FClear.8 mph76%29.86 "Hg10 mi
7:53 PM71 °FClear.8 mph73%29.84 "Hg10 mi
6:53 PM73 °FSunny.8 mph69%29.83 "Hg10 mi
5:53 PM76 °FSunny.13 mph62%29.82 "Hg10 mi
Weather by CustomWeather, © 2014

See weather overviewHow to use our weather pages